sat.trackr.live / text

‹ back to catalog

VRSS-2

NORAD 42954 · 2017-060A

PAYLOAD ACTIVE UNKNOWN

§ Identity

Operator
Country
VENZ
Launch date
2017-10-09
Launch site
JSC
Launch vehicle
Mass (kg)
RCS (m²)

External: N2YO · Heavens-Above · Gunter

§ Orbital elements

Epoch: 2026-05-25T05:14:13.895232Z

Period
97.22 min
Inclination
97.6530°
Eccentricity
0.0017211
Mean motion
14.81151227 rev/d
Perigee alt
613.6 km
Apogee alt
637.7 km
Semi-major
7,003.8 km
B*
1.4559e-4
RAAN
183.9789°
Arg perigee
169.7235°
Mean anomaly
190.4334°
Rev number
46,505

§ Raw data

VRSS-21 42954U 17060A   26145.21821638  .00001085  00000+0  14559-3 0  99972 42954  97.6530 183.9789 0017211 169.7235 190.4334 14.81151227465052

JSON: /api/v1/satellites/42954 · /tle

For live sub-satellite position, see the globe view (requires WebGL).

§ Visibility from observer

Set your observer location to see the next 7 days of passes ≥ 10°. The values pass through the URL so the page stays shareable.

No JS? Fill the form by hand. The geolocation button needs JavaScript.

§ Radio — SatNOGS DB

ModeDescriptionDownlinkUplink
FM S-band telemetry 2.250 GHz

1 transmitter · refreshed weekly from db.satnogs.org